Location: Newark
(37.8333°N, 119.5000°W)
Time: 23:28:40
(UTC+00:00)

Transit 2A Rocket - All Passes

Search period start: 19 August 2019 00:00
Search period end: 29 August 2019 00:00
Orbit: 590 x 913 km, 66.7° (Epoch: 18 August)

Date Brightness Start Highest point End Pass type
(mag) Time Alt. Az. Time Alt. Az. Time Alt. Az.
19 Aug - 03:21:02 10° S 03:26:49 58° ESE 03:32:14 10° NE visible
19 Aug - 05:05:16 10° WSW 05:09:43 22° NW 05:13:55 10° N visible
19 Aug - 12:07:47 10° N 12:11:34 25° NE 12:15:09 10° ESE visible
19 Aug - 13:50:12 10° NW 13:54:04 29° WSW 13:57:47 10° S daylight
20 Aug - 02:39:12 10° S 02:44:25 33° ESE 02:49:21 10° NE daylight
20 Aug - 04:21:39 10° WSW 04:26:58 36° NW 04:31:56 10° N visible
20 Aug - 11:26:09 10° NNE 11:28:43 15° NE 11:31:11 10° E visible
20 Aug - 13:07:17 10° NW 13:11:44 59° WSW 13:15:56 10° SSE daylight
21 Aug - 01:58:06 10° SSE 02:02:07 19° ESE 02:05:57 10° ENE daylight
21 Aug - 03:38:33 10° SW 03:44:20 60° WNW 03:49:43 10° NNE visible
21 Aug - 05:27:32 10° NW 05:27:55 10° NW 05:28:17 10° NW visible
21 Aug - 12:24:44 10° NNW 12:29:15 69° ENE 12:33:32 10° SE visible
22 Aug - 02:55:54 10° SSW 03:01:48 82° ESE 03:07:16 10° NNE daylight
22 Aug - 04:41:26 10° W 04:44:56 16° NW 04:48:17 10° N visible
22 Aug - 11:42:27 10° NNW 11:46:39 36° NE 11:50:38 10° ESE visible
22 Aug - 13:25:46 10° WNW 13:28:51 19° WSW 13:31:51 10° SSW daylight
23 Aug - 02:13:43 10° S 02:19:20 47° ESE 02:24:35 10° NE daylight
23 Aug - 03:57:21 10° WSW 04:02:06 26° NW 04:06:34 10° N visible
23 Aug - 11:00:30 10° N 11:03:54 20° NE 11:07:11 10° E visible
23 Aug - 12:42:29 10° NW 12:46:35 37° WSW 12:50:31 10° S visible
24 Aug - 01:32:07 10° SSE 01:36:58 27° ESE 01:41:34 10° NE daylight
24 Aug - 03:13:55 10° SW 03:19:24 42° WNW 03:24:30 10° NNE visible
24 Aug - 10:19:13 10° NNE 10:21:00 12° NE 10:22:46 10° ENE visible
24 Aug - 11:59:43 10° NNW 12:04:12 76° WSW 12:08:27 10° SSE visible
25 Aug - 00:51:24 10° SE 00:54:41 15° ESE 00:57:51 10° ENE daylight
25 Aug - 02:30:58 10° SW 02:36:48 71° WNW 02:42:12 10° NNE daylight
25 Aug - 04:18:12 10° WNW 04:20:12 12° NW 04:22:09 10° NNW visible
25 Aug - 11:17:15 10° NNW 11:21:41 54° ENE 11:25:53 10° SE visible
25 Aug - 13:02:02 10° W 13:03:35 12° WSW 13:05:08 10° SW daylight
26 Aug - 01:48:28 10° SSW 01:54:18 68° ESE 01:59:41 10° NNE daylight
26 Aug - 03:33:19 10° W 03:37:17 19° NW 03:41:02 10° N visible
26 Aug - 10:35:05 10° N 10:39:02 29° NE 10:42:48 10° ESE visible
26 Aug - 12:17:53 10° NW 12:21:23 23° WSW 12:24:48 10° SSW visible
27 Aug - 01:06:28 10° S 01:11:52 39° ESE 01:16:54 10° NE daylight
27 Aug - 02:49:29 10° WSW 02:54:30 30° NW 02:59:11 10° N daylight
27 Aug - 09:53:16 10° N 09:56:14 17° NE 09:59:06 10° E visible
27 Aug - 11:34:49 10° NW 11:39:05 47° WSW 11:43:10 10° S visible
28 Aug - 00:25:07 10° SSE 00:29:31 22° ESE 00:33:42 10° ENE daylight
28 Aug - 02:06:13 10° SW 02:11:50 50° WNW 02:17:02 10° NNE daylight
28 Aug - 10:52:10 10° NNW 10:56:39 86° ENE 11:00:55 10° SSE visible
28 Aug - 23:45:02 10° SE 23:47:15 12° ESE 23:49:26 10° E daylight
